QPF
0.00 0.00 0.00 0.00 0.04 0.07 0.07 0.04 0.01 0.00 0.00 0.00 0.00 0.00 0.00 0.02 0.07 0.24 0.17 0.04 0.01 0.00 0.00 0.00 0.00 0.01 0.02 0.02 0.03 0.02 0.02 0.02 0.01 0.01 0.00 0.01 0.00 0.00 0.01 0.00 0.00 0.01 0.01 0.01 0.01 0.01 0.01 0.01 0.01
0.00 0.00 0.00 0.01 0.05 0.05 0.04 0.03 0.02 0.01 0.00 0.00 0.00 0.00 0.01 0.04 0.03 0.04 0.06 0.06 0.01 0.00 0.00 0.00 0.00 0.01 0.01 0.02 0.03 0.03 0.02 0.01 0.01 0.01 0.01 0.01 0.00 0.00 0.00 0.00 0.00 0.00 0.01 0.01 0.01 0.01 0.01 0.01 0.01
0.00 0.00 0.00 0.01 0.02 0.01 0.01 0.00 0.00 0.00 0.00 0.00 0.00 0.00 0.01 0.04 0.02 0.02 0.07 0.04 0.01 0.00 0.00 0.00 0.00 0.01 0.01 0.02 0.02 0.02 0.02 0.01 0.01 0.01 0.00 0.00 0.00 0.00 0.00 0.00 0.01 0.01 0.00 0.01 0.01 0.01 0.00 0.00 0.01
0.00 0.00 0.00 0.01 0.00 0.00 0.00 0.00 0.00 0.00 0.00 0.00 0.00 0.01 0.01 0.01 0.01 0.01 0.03 0.02 0.02 0.02 0.00 0.00 0.00 0.01 0.01 0.02 0.02 0.02 0.02 0.02 0.01 0.01 0.00 0.00 0.00 0.00 0.00 0.00 0.01 0.01 0.00 0.01 0.01 0.01 0.00 0.00 0.01
0.00 0.00 0.01 0.01 0.00 0.00 0.00 0.00 0.00 0.00 0.00 0.01 0.00 0.04 0.07 0.03 0.01 0.01 0.01 0.02 0.02 0.02 0.01 0.01 0.01 0.01 0.02 0.02 0.02 0.02 0.02 0.02 0.01 0.01 0.01 0.01 0.01 0.01 0.01 0.01 0.01 0.01 0.01 0.01 0.01 0.01 0.01 0.00 0.00
0.00 0.00 0.01 0.00 0.00 0.00 0.00 0.00 0.00 0.00 0.00 0.00 0.01 0.05 0.10 0.05 0.04 0.03 0.03 0.04 0.04 0.01 0.01 0.01 0.01 0.01 0.02 0.03 0.03 0.02 0.02 0.02 0.01 0.01 0.01 0.01 0.01 0.01 0.01 0.00 0.01 0.01 0.01 0.01 0.01 0.01 0.01 0.00 0.00
0.00 0.00 0.00 0.00 0.00 0.00 0.00 0.00 0.00 0.00 0.00 0.01 0.00 0.05 0.09 0.08 0.08 0.06 0.05 0.06 0.05 0.02 0.01 0.00 0.00 0.01 0.01 0.02 0.02 0.02 0.02 0.01 0.01 0.01 0.01 0.01 0.01 0.01 0.01 0.00 0.00 0.00 0.00 0.01 0.01 0.01 0.01 0.00 0.00
0.00 0.00 0.00 0.00 0.00 0.00 0.00 0.00 0.00 0.00 0.00 0.00 0.00 0.04 0.09 0.10 0.08 0.10 0.13 0.14 0.09 0.04 0.02 0.01 0.00 0.00 0.01 0.01 0.01 0.01 0.01 0.01 0.01 0.01 0.01 0.01 0.02 0.02 0.02 0.01 0.01 0.01 0.01 0.01 0.01 0.01 0.01 0.01 0.00
0.00 0.00 0.00 0.00 0.00 0.00 0.00 0.00 0.00 0.00 0.00 0.00 0.00 0.01 0.03 0.05 0.05 0.07 0.10 0.11 0.08 0.04 0.03 0.02 0.01 0.01 0.01 0.01 0.01 0.01 0.01 0.02 0.02 0.02 0.01 0.03 0.08 0.11 0.09 0.06 0.03 0.01 0.01 0.01 0.02 0.01 0.01 0.01 0.01
0.00 0.00 0.00 0.00 0.00 0.00 0.00 0.00 0.00 0.00 0.00 0.02 0.01 0.02 0.02 0.02 0.05 0.06 0.07 0.08 0.08 0.07 0.07 0.06 0.04 0.03 0.03 0.04 0.04 0.04 0.05 0.05 0.06 0.11 0.07 0.09 0.13 0.14 0.11 0.07 0.03 0.01 0.01 0.02 0.03 0.02 0.02 0.03 0.04
0.00 0.00 0.00 0.00 0.00 0.00 0.00 0.00 0.00 0.00 0.01 0.03 0.05 0.03 0.05 0.05 0.06 0.06 0.09 0.06 0.08 0.09 0.11 0.12 0.06 0.09 0.08 0.07 0.07 0.08 0.11 0.10 0.11 0.11 0.10 0.10 0.08 0.07 0.08 0.07 0.05 0.04 0.03 0.04 0.06 0.04 0.05 0.07 0.08
0.00 0.00 0.00 0.00 0.00 0.00 0.00 0.00 0.00 0.00 0.01 0.02 0.03 0.03 0.03 0.07 0.09 0.09 0.13 0.10 0.07 0.09 0.10 0.14 0.08 0.11 0.11 0.08 0.08 0.08 0.07 0.09 0.10 0.08 0.08 0.07 0.07 0.07 0.07 0.06 0.06 0.07 0.07 0.05 0.05 0.07 0.06 0.07 0.07
0.00 0.00 0.00 0.00 0.00 0.00 0.00 0.00 0.00 0.01 0.04 0.02 0.01 0.02 0.03 0.07 0.10 0.12 0.21 0.25 0.16 0.12 0.10 0.10 0.12 0.12 0.10 0.11 0.09 0.07 0.08 0.08 0.06 0.06 0.05 0.04 0.05 0.05 0.05 0.04 0.05 0.04 0.04 0.03 0.03 0.04 0.04 0.04 0.04
0.00 0.00 0.00 0.00 0.00 0.00 0.00 0.00 0.01 0.03 0.03 0.01 0.02 0.05 0.06 0.10 0.14 0.14 0.15 0.24 0.24 0.19 0.15 0.13 0.11 0.13 0.11 0.10 0.08 0.09 0.06 0.06 0.06 0.04 0.03 0.03 0.03 0.03 0.05 0.05 0.05 0.03 0.02 0.03 0.03 0.03 0.03 0.03 0.03
0.00 0.00 0.00 0.00 0.00 0.00 0.00 0.01 0.01 0.01 0.01 0.01 0.02 0.06 0.08 0.10 0.15 0.15 0.13 0.12 0.19 0.20 0.16 0.14 0.12 0.15 0.16 0.13 0.09 0.07 0.06 0.05 0.06 0.03 0.02 0.01 0.01 0.01 0.02 0.04 0.03 0.02 0.02 0.03 0.03 0.02 0.02 0.02 0.02
0.00 0.00 0.01 0.00 0.00 0.00 0.00 0.01 0.01 0.00 0.00 0.00 0.01 0.04 0.06 0.10 0.15 0.13 0.13 0.13 0.17 0.20 0.17 0.15 0.10 0.15 0.15 0.14 0.10 0.07 0.06 0.06 0.07 0.03 0.01 0.00 0.00 0.00 0.01 0.01 0.01 0.01 0.01 0.02 0.02 0.02 0.01 0.01 0.01
0.00 0.00 0.00 0.00 0.00 0.00 0.00 0.01 0.01 0.00 0.00 0.01 0.02 0.06 0.08 0.10 0.11 0.13 0.16 0.12 0.18 0.21 0.20 0.17 0.17 0.16 0.15 0.13 0.09 0.07 0.05 0.05 0.03 0.02 0.01 0.00 0.00 0.00 0.01 0.00 0.01 0.00 0.01 0.01 0.01 0.01 0.01 0.01 0.01
0.00 0.00 0.00 0.00 0.00 0.00 0.00 0.00 0.00 0.00 0.00 0.01 0.02 0.05 0.08 0.11 0.10 0.09 0.11 0.11 0.14 0.18 0.20 0.16 0.15 0.14 0.15 0.14 0.12 0.10 0.06 0.03 0.02 0.01 0.01 0.00 0.00 0.01 0.01 0.00 0.00 0.00 0.00 0.00 0.00 0.01 0.01 0.00 0.01
0.00 0.00 0.00 0.00 0.00 0.00 0.00 0.00 0.00 0.00 0.01 0.01 0.02 0.04 0.06 0.11 0.11 0.09 0.09 0.09 0.11 0.13 0.19 0.17 0.15 0.13 0.15 0.15 0.12 0.10 0.06 0.03 0.01 0.00 0.00 0.00 0.00 0.00 0.01 0.00 0.00 0.00 0.00 0.00 0.00 0.00 0.00 0.00 0.01
0.00 0.00 0.00 0.00 0.00 0.00 0.00 0.00 0.00 0.00 0.00 0.01 0.01 0.03 0.04 0.07 0.11 0.10 0.09 0.10 0.10 0.10 0.10 0.11 0.13 0.15 0.15 0.17 0.12 0.08 0.05 0.02 0.01 0.00 0.00 0.00 0.00 0.00 0.00 0.00 0.00 0.00 0.00 0.00 0.00 0.00 0.00 0.00 0.00
0.00 0.00 0.00 0.00 0.00 0.00 0.00 0.00 0.01 0.01 0.00 0.00 0.00 0.01 0.01 0.04 0.08 0.09 0.07 0.09 0.08 0.09 0.10 0.10 0.12 0.14 0.17 0.18 0.11 0.06 0.04 0.02 0.02 0.01 0.01 0.00 0.00 0.00 0.00 0.00 0.00 0.00 0.00 0.00 0.00 0.00 0.00 0.00 0.00
0.00 0.00 0.00 0.00 0.00 0.00 0.00 0.01 0.01 0.01 0.00 0.00 0.00 0.00 0.01 0.02 0.06 0.07 0.07 0.08 0.07 0.08 0.10 0.12 0.12 0.12 0.12 0.12 0.10 0.06 0.03 0.02 0.02 0.01 0.01 0.00 0.00 0.00 0.00 0.00 0.00 0.00 0.00 0.00 0.00 0.00 0.00 0.00 0.00
0.00 0.00 0.00 0.00 0.01 0.02 0.03 0.01 0.01 0.00 0.00 0.00 0.00 0.00 0.00 0.01 0.02 0.03 0.06 0.07 0.06 0.06 0.08 0.11 0.13 0.10 0.10 0.09 0.08 0.06 0.04 0.03 0.01 0.01 0.01 0.00 0.00 0.00 0.00 0.00 0.00 0.00 0.00 0.00 0.00 0.00 0.00 0.00 0.00
0.00 0.00 0.00 0.01 0.06 0.11 0.07 0.01 0.00 0.00 0.00 0.00 0.00 0.00 0.01 0.00 0.02 0.04 0.05 0.07 0.07 0.06 0.06 0.10 0.12 0.10 0.09 0.08 0.06 0.04 0.04 0.03 0.03 0.02 0.01 0.01 0.00 0.00 0.00 0.00 0.00 0.00 0.00 0.00 0.00 0.00 0.00 0.00 0.00
0.00 0.00 0.00 0.01 0.06 0.09 0.04 0.00 0.00 0.00 0.00 0.00 0.00 0.00 0.01 0.01 0.01 0.02 0.03 0.04 0.05 0.05 0.05 0.08 0.09 0.08 0.07 0.06 0.05 0.04 0.03 0.02 0.02 0.02 0.01 0.00 0.00 0.00 0.00 0.00 0.00 0.00 0.00 0.00 0.00 0.00 0.00 0.00 0.00
0.00 0.00 0.00 0.01 0.01 0.01 0.01 0.01 0.00 0.00 0.00 0.00 0.00 0.00 0.00 0.00 0.00 0.01 0.02 0.04 0.03 0.02 0.03 0.04 0.06 0.06 0.06 0.05 0.04 0.03 0.02 0.01 0.01 0.02 0.01 0.00 0.00 0.00 0.00 0.00 0.00 0.00 0.00 0.00 0.00 0.00 0.00 0.00 0.00
0.00 0.00 0.00 0.01 0.01 0.01 0.03 0.03 0.02 0.01 0.00 0.00 0.00 0.00 0.00 0.00 0.00 0.01 0.01 0.03 0.02 0.02 0.02 0.02 0.04 0.04 0.04 0.04 0.03 0.02 0.02 0.01 0.01 0.01 0.01 0.00 0.00 0.00 0.00 0.00 0.00 0.00 0.00 0.00 0.00 0.00 0.00 0.00 0.00
0.00 0.00 0.00 0.00 0.00 0.01 0.03 0.04 0.04 0.03 0.01 0.00 0.00 0.00 0.00 0.00 0.00 0.00 0.00 0.00 0.01 0.01 0.02 0.03 0.03 0.03 0.03 0.03 0.02 0.01 0.01 0.01 0.01 0.01 0.01 0.00 0.00 0.00 0.00 0.00 0.00 0.00 0.00 0.00 0.00 0.00 0.00 0.00 0.00
0.01 0.00 0.00 0.00 0.00 0.00 0.03 0.04 0.02 0.02 0.01 0.00 0.00 0.00 0.00 0.00 0.00 0.00 0.00 0.00 0.01 0.01 0.01 0.02 0.02 0.02 0.01 0.01 0.01 0.01 0.01 0.01 0.01 0.00 0.00 0.01 0.00 0.00 0.00 0.00 0.00 0.00 0.00 0.00 0.00 0.00 0.00 0.00 0.00
0.01 0.00 0.00 0.00 0.00 0.00 0.01 0.02 0.01 0.00 0.00 0.00 0.00 0.00 0.00 0.00 0.00 0.00 0.01 0.02 0.02 0.01 0.01 0.01 0.01 0.00 0.00 0.01 0.01 0.01 0.01 0.01 0.01 0.00 0.00 0.00 0.00 0.00 0.00 0.00 0.00 0.00 0.00 0.00 0.00 0.00 0.00 0.00 0.00
MSLP
1009.22 1009.88 1010.56 1011.11 1011.41 1011.39 1011.06 1010.51 1009.87 1009.30 1008.94 1008.85 1009.04 1009.45 1009.94 1010.40 1010.71 1010.80 1010.71 1010.52 1010.33 1010.26 1010.41 1010.81 1011.42 1012.15 1012.89 1013.54 1014.01 1014.29 1014.40 1014.42 1014.44 1014.53 1014.72 1015.02 1015.38 1015.75 1016.06 1016.27 1016.36 1016.35 1016.29 1016.22 1016.18 1016.20 1016.28 1016.40 1016.51
1009.49 1010.16 1010.79 1011.23 1011.38 1011.21 1010.73 1010.06 1009.33 1008.71 1008.33 1008.25 1008.46 1008.88 1009.40 1009.89 1010.23 1010.38 1010.36 1010.25 1010.17 1010.22 1010.47 1010.96 1011.64 1012.41 1013.18 1013.83 1014.30 1014.57 1014.69 1014.72 1014.75 1014.84 1015.03 1015.31 1015.65 1015.98 1016.25 1016.42 1016.50 1016.49 1016.44 1016.40 1016.39 1016.44 1016.52 1016.63 1016.73
1009.72 1010.35 1010.88 1011.19 1011.18 1010.85 1010.25 1009.48 1008.71 1008.08 1007.71 1007.66 1007.89 1008.33 1008.86 1009.35 1009.70 1009.88 1009.93 1009.90 1009.92 1010.08 1010.45 1011.02 1011.77 1012.59 1013.37 1014.04 1014.52 1014.81 1014.96 1015.01 1015.06 1015.16 1015.34 1015.59 1015.87 1016.15 1016.36 1016.50 1016.56 1016.56 1016.55 1016.55 1016.60 1016.68 1016.79 1016.89 1016.96
1009.84 1010.40 1010.80 1010.95 1010.79 1010.33 1009.64 1008.84 1008.07 1007.49 1007.18 1007.18 1007.45 1007.90 1008.42 1008.89 1009.24 1009.43 1009.51 1009.57 1009.68 1009.94 1010.40 1011.05 1011.86 1012.71 1013.51 1014.18 1014.68 1014.99 1015.16 1015.25 1015.32 1015.43 1015.60 1015.81 1016.04 1016.25 1016.42 1016.52 1016.57 1016.60 1016.64 1016.70 1016.81 1016.94 1017.06 1017.15 1017.19
1009.81 1010.26 1010.51 1010.51 1010.22 1009.67 1008.95 1008.18 1007.49 1007.01 1006.81 1006.89 1007.21 1007.67 1008.17 1008.61 1008.93 1009.12 1009.22 1009.33 1009.52 1009.87 1010.41 1011.12 1011.95 1012.81 1013.61 1014.27 1014.76 1015.08 1015.28 1015.40 1015.50 1015.63 1015.79 1015.97 1016.15 1016.31 1016.43 1016.50 1016.55 1016.61 1016.70 1016.84 1017.01 1017.18 1017.33 1017.40 1017.39
1009.64 1009.94 1010.04 1009.90 1009.51 1008.92 1008.24 1007.56 1007.02 1006.70 1006.64 1006.84 1007.21 1007.69 1008.16 1008.56 1008.83 1009.00 1009.12 1009.26 1009.51 1009.92 1010.51 1011.25 1012.09 1012.92 1013.68 1014.31 1014.77 1015.09 1015.29 1015.44 1015.58 1015.72 1015.89 1016.06 1016.21 1016.33 1016.41 1016.46 1016.52 1016.61 1016.75 1016.94 1017.17 1017.38 1017.53 1017.59 1017.54
1009.37 1009.51 1009.46 1009.19 1008.74 1008.17 1007.57 1007.05 1006.70 1006.57 1006.68 1007.00 1007.44 1007.92 1008.36 1008.71 1008.93 1009.07 1009.19 1009.36 1009.65 1010.10 1010.72 1011.46 1012.26 1013.04 1013.73 1014.29 1014.70 1015.00 1015.21 1015.38 1015.55 1015.73 1015.91 1016.09 1016.22 1016.32 1016.37 1016.41 1016.46 1016.57 1016.75 1016.99 1017.25 1017.49 1017.65 1017.69 1017.60
1009.06 1009.04 1008.85 1008.49 1008.01 1007.49 1007.01 1006.67 1006.52 1006.60 1006.88 1007.30 1007.80 1008.29 1008.69 1008.98 1009.15 1009.26 1009.37 1009.56 1009.88 1010.36 1010.98 1011.70 1012.44 1013.14 1013.74 1014.22 1014.57 1014.83 1015.03 1015.23 1015.44 1015.66 1015.88 1016.08 1016.22 1016.30 1016.33 1016.35 1016.40 1016.50 1016.69 1016.95 1017.23 1017.49 1017.66 1017.69 1017.58
1008.77 1008.62 1008.30 1007.87 1007.39 1006.93 1006.59 1006.42 1006.46 1006.71 1007.13 1007.65 1008.18 1008.66 1009.02 1009.25 1009.39 1009.47 1009.58 1009.79 1010.13 1010.62 1011.23 1011.91 1012.59 1013.20 1013.70 1014.09 1014.37 1014.60 1014.80 1015.03 1015.28 1015.56 1015.83 1016.05 1016.21 1016.28 1016.30 1016.29 1016.31 1016.40 1016.57 1016.82 1017.11 1017.37 1017.54 1017.58 1017.48
1008.56 1008.28 1007.86 1007.38 1006.91 1006.52 1006.29 1006.27 1006.46 1006.84 1007.36 1007.93 1008.47 1008.92 1009.24 1009.43 1009.53 1009.61 1009.73 1009.96 1010.32 1010.82 1011.41 1012.04 1012.65 1013.18 1013.59 1013.91 1014.14 1014.34 1014.56 1014.81 1015.12 1015.45 1015.78 1016.04 1016.22 1016.29 1016.29 1016.25 1016.23 1016.27 1016.41 1016.62 1016.89 1017.15 1017.33 1017.40 1017.33
1008.42 1008.04 1007.55 1007.04 1006.58 1006.25 1006.11 1006.18 1006.46 1006.92 1007.47 1008.05 1008.57 1008.99 1009.27 1009.43 1009.53 1009.61 1009.76 1010.01 1010.40 1010.91 1011.49 1012.08 1012.63 1013.09 1013.45 1013.71 1013.91 1014.11 1014.34 1014.64 1015.00 1015.39 1015.76 1016.06 1016.25 1016.33 1016.31 1016.23 1016.16 1016.15 1016.22 1016.40 1016.63 1016.88 1017.08 1017.18 1017.16
1008.32 1007.88 1007.35 1006.82 1006.38 1006.08 1005.99 1006.10 1006.42 1006.88 1007.43 1007.97 1008.46 1008.83 1009.09 1009.25 1009.36 1009.48 1009.67 1009.96 1010.38 1010.89 1011.46 1012.04 1012.55 1012.97 1013.30 1013.54 1013.74 1013.96 1014.22 1014.56 1014.96 1015.39 1015.80 1016.12 1016.33 1016.40 1016.36 1016.24 1016.12 1016.05 1016.07 1016.19 1016.39 1016.62 1016.84 1016.98 1017.02
1008.24 1007.76 1007.21 1006.68 1006.25 1005.98 1005.89 1006.01 1006.30 1006.73 1007.22 1007.71 1008.14 1008.49 1008.74 1008.93 1009.08 1009.26 1009.50 1009.85 1010.29 1010.82 1011.39 1011.95 1012.46 1012.87 1013.19 1013.45 1013.68 1013.93 1014.23 1014.60 1015.03 1015.48 1015.90 1016.24 1016.44 1016.51 1016.45 1016.31 1016.15 1016.03 1015.99 1016.06 1016.22 1016.44 1016.66 1016.85 1016.96
1008.15 1007.65 1007.10 1006.59 1006.18 1005.91 1005.81 1005.89 1006.12 1006.47 1006.88 1007.30 1007.69 1008.02 1008.30 1008.54 1008.77 1009.02 1009.34 1009.74 1010.22 1010.77 1011.34 1011.90 1012.41 1012.84 1013.19 1013.49 1013.77 1014.06 1014.39 1014.78 1015.21 1015.66 1016.06 1016.39 1016.59 1016.65 1016.58 1016.43 1016.25 1016.10 1016.03 1016.05 1016.18 1016.38 1016.61 1016.83 1017.00
1008.02 1007.52 1007.01 1006.53 1006.14 1005.88 1005.76 1005.79 1005.93 1006.18 1006.49 1006.84 1007.19 1007.54 1007.87 1008.18 1008.51 1008.86 1009.26 1009.72 1010.23 1010.79 1011.36 1011.92 1012.44 1012.91 1013.31 1013.67 1014.00 1014.33 1014.69 1015.08 1015.49 1015.90 1016.27 1016.56 1016.74 1016.80 1016.75 1016.61 1016.44 1016.29 1016.20 1016.20 1016.30 1016.48 1016.70 1016.93 1017.13
1007.88 1007.41 1006.94 1006.52 1006.18 1005.93 1005.79 1005.75 1005.80 1005.93 1006.15 1006.42 1006.75 1007.12 1007.51 1007.93 1008.36 1008.82 1009.30 1009.81 1010.34 1010.90 1011.46 1012.02 1012.56 1013.06 1013.52 1013.95 1014.34 1014.71 1015.08 1015.45 1015.82 1016.17 1016.49 1016.73 1016.89 1016.96 1016.93 1016.83 1016.71 1016.58 1016.50 1016.50 1016.57 1016.72 1016.92 1017.15 1017.36
1007.74 1007.31 1006.92 1006.59 1006.32 1006.11 1005.94 1005.83 1005.78 1005.80 1005.91 1006.11 1006.41 1006.80 1007.27 1007.79 1008.34 1008.90 1009.45 1010.00 1010.54 1011.08 1011.62 1012.17 1012.72 1013.26 1013.77 1014.26 1014.71 1015.13 1015.50 1015.85 1016.16 1016.44 1016.68 1016.88 1017.02 1017.09 1017.11 1017.08 1017.02 1016.95 1016.90 1016.90 1016.96 1017.08 1017.24 1017.44 1017.64
1007.63 1007.27 1006.99 1006.78 1006.60 1006.44 1006.27 1006.10 1005.94 1005.83 1005.82 1005.94 1006.21 1006.62 1007.16 1007.77 1008.43 1009.07 1009.68 1010.25 1010.78 1011.28 1011.79 1012.31 1012.85 1013.42 1013.98 1014.53 1015.04 1015.49 1015.87 1016.19 1016.44 1016.65 1016.83 1016.97 1017.10 1017.20 1017.27 1017.32 1017.34 1017.35 1017.35 1017.37 1017.42 1017.50 1017.62 1017.77 1017.94
1007.53 1007.29 1007.16 1007.10 1007.05 1006.95 1006.78 1006.54 1006.27 1006.03 1005.89 1005.91 1006.12 1006.54 1007.12 1007.82 1008.56 1009.28 1009.94 1010.51 1011.01 1011.46 1011.91 1012.38 1012.91 1013.48 1014.09 1014.69 1015.25 1015.74 1016.13 1016.43 1016.64 1016.79 1016.90 1017.01 1017.12 1017.25 1017.39 1017.52 1017.64 1017.73 1017.79 1017.84 1017.87 1017.92 1017.99 1018.10 1018.22
1007.43 1007.35 1007.42 1007.54 1007.64 1007.62 1007.46 1007.16 1006.76 1006.37 1006.08 1005.98 1006.13 1006.52 1007.14 1007.90 1008.71 1009.48 1010.17 1010.73 1011.19 1011.58 1011.95 1012.36 1012.85 1013.42 1014.04 1014.69 1015.29 1015.82 1016.24 1016.53 1016.71 1016.82 1016.90 1016.98 1017.09 1017.25 1017.45 1017.66 1017.87 1018.04 1018.16 1018.24 1018.28 1018.30 1018.32 1018.38 1018.46
1007.30 1007.44 1007.73 1008.07 1008.32 1008.40 1008.24 1007.87 1007.35 1006.80 1006.35 1006.12 1006.18 1006.54 1007.17 1007.97 1008.83 1009.66 1010.36 1010.91 1011.33 1011.64 1011.93 1012.27 1012.70 1013.23 1013.86 1014.53 1015.18 1015.74 1016.19 1016.50 1016.67 1016.76 1016.82 1016.89 1017.01 1017.19 1017.44 1017.73 1018.01 1018.25 1018.43 1018.53 1018.57 1018.58 1018.57 1018.59 1018.64
1007.14 1007.52 1008.06 1008.62 1009.04 1009.20 1009.04 1008.59 1007.94 1007.24 1006.63 1006.27 1006.24 1006.56 1007.19 1008.02 1008.94 1009.81 1010.53 1011.08 1011.44 1011.69 1011.90 1012.15 1012.51 1012.99 1013.60 1014.27 1014.94 1015.55 1016.02 1016.35 1016.55 1016.64 1016.69 1016.76 1016.88 1017.09 1017.37 1017.70 1018.03 1018.33 1018.55 1018.69 1018.74 1018.75 1018.73 1018.72 1018.75
1006.94 1007.59 1008.38 1009.15 1009.71 1009.93 1009.77 1009.24 1008.47 1007.62 1006.87 1006.39 1006.28 1006.57 1007.21 1008.08 1009.04 1009.96 1010.71 1011.26 1011.59 1011.78 1011.91 1012.08 1012.35 1012.78 1013.34 1014.00 1014.67 1015.29 1015.80 1016.16 1016.37 1016.48 1016.54 1016.60 1016.73 1016.94 1017.24 1017.59 1017.96 1018.29 1018.55 1018.71 1018.79 1018.80 1018.79 1018.78 1018.82
1006.78 1007.68 1008.69 1009.62 1010.28 1010.54 1010.35 1009.74 1008.86 1007.88 1007.02 1006.46 1006.29 1006.57 1007.22 1008.13 1009.16 1010.12 1010.92 1011.48 1011.80 1011.95 1012.02 1012.10 1012.30 1012.65 1013.15 1013.77 1014.43 1015.05 1015.57 1015.95 1016.18 1016.30 1016.37 1016.44 1016.57 1016.77 1017.07 1017.42 1017.80 1018.15 1018.43 1018.62 1018.73 1018.77 1018.78 1018.79 1018.84
1006.73 1007.82 1009.00 1010.03 1010.73 1010.98 1010.73 1010.04 1009.06 1007.99 1007.05 1006.44 1006.25 1006.53 1007.22 1008.18 1009.26 1010.28 1011.13 1011.71 1012.04 1012.17 1012.20 1012.23 1012.35 1012.63 1013.07 1013.63 1014.25 1014.85 1015.36 1015.75 1015.99 1016.13 1016.20 1016.27 1016.38 1016.58 1016.85 1017.20 1017.57 1017.93 1018.23 1018.45 1018.60 1018.67 1018.72 1018.76 1018.84
1006.85 1008.08 1009.32 1010.37 1011.04 1011.22 1010.89 1010.11 1009.05 1007.93 1006.95 1006.32 1006.15 1006.45 1007.17 1008.18 1009.31 1010.38 1011.27 1011.89 1012.25 1012.38 1012.39 1012.39 1012.46 1012.68 1013.05 1013.55 1014.12 1014.68 1015.17 1015.54 1015.79 1015.93 1016.00 1016.07 1016.17 1016.35 1016.61 1016.94 1017.30 1017.66 1017.97 1018.23 1018.41 1018.53 1018.62 1018.70 1018.80
1007.19 1008.46 1009.68 1010.65 1011.21 1011.27 1010.82 1009.96 1008.84 1007.69 1006.72 1006.11 1005.96 1006.29 1007.04 1008.08 1009.23 1010.33 1011.25 1011.91 1012.29 1012.45 1012.48 1012.48 1012.54 1012.72 1013.04 1013.48 1013.99 1014.50 1014.95 1015.30 1015.53 1015.67 1015.75 1015.81 1015.91 1016.08 1016.33 1016.64 1016.99 1017.35 1017.68 1017.96 1018.18 1018.35 1018.48 1018.60 1018.72
1007.71 1008.93 1010.03 1010.84 1011.22 1011.12 1010.54 1009.59 1008.44 1007.30 1006.36 1005.79 1005.68 1006.04 1006.79 1007.82 1008.96 1010.06 1010.98 1011.65 1012.07 1012.27 1012.34 1012.38 1012.45 1012.63 1012.93 1013.33 1013.79 1014.25 1014.65 1014.97 1015.18 1015.31 1015.39 1015.47 1015.58 1015.75 1015.99 1016.30 1016.65 1017.01 1017.35 1017.66 1017.91 1018.11 1018.27 1018.42 1018.56
1008.31 1009.39 1010.30 1010.89 1011.06 1010.77 1010.06 1009.05 1007.90 1006.79 1005.91 1005.40 1005.33 1005.69 1006.42 1007.40 1008.47 1009.51 1010.39 1011.05 1011.49 1011.75 1011.88 1011.98 1012.11 1012.33 1012.63 1013.02 1013.44 1013.85 1014.22 1014.50 1014.69 1014.82 1014.91 1015.00 1015.13 1015.32 1015.58 1015.90 1016.26 1016.63 1016.98 1017.29 1017.56 1017.79 1017.97 1018.13 1018.28
1008.83 1009.74 1010.41 1010.75 1010.69 1010.22 1009.41 1008.37 1007.25 1006.22 1005.44 1005.00 1004.96 1005.31 1005.98 1006.86 1007.82 1008.74 1009.54 1010.16 1010.60 1010.90 1011.11 1011.29 1011.51 1011.78 1012.12 1012.52 1012.92 1013.30 1013.63 1013.88 1014.06 1014.19 1014.29 1014.41 1014.58 1014.80 1015.09 1015.43 1015.80 1016.18 1016.53 1016.85 1017.13 1017.35 1017.54 1017.70 1017.84
Thickness
5827 5830 5831 5824 5806 5793 5786 5805 5822 5826 5827 5832 5830 5824 5813 5801 5788 5773 5800 5817 5818 5809 5800 5794 5790 5787 5784 5781 5779 5776 5774 5772 5769 5767 5765 5764 5762 5761 5760 5759 5757 5756 5755 5754 5753 5751 5750 5750 5749
5832 5836 5830 5818 5797 5781 5792 5813 5814 5819 5827 5830 5826 5821 5811 5802 5806 5804 5809 5814 5815 5805 5797 5792 5787 5784 5781 5779 5777 5774 5772 5769 5767 5765 5763 5762 5760 5759 5758 5757 5755 5754 5753 5751 5750 5749 5748 5748 5747
5831 5836 5821 5813 5800 5794 5805 5821 5822 5828 5832 5826 5819 5819 5810 5800 5806 5807 5811 5814 5812 5803 5796 5788 5785 5781 5778 5776 5774 5772 5769 5767 5765 5763 5761 5760 5758 5757 5756 5754 5753 5752 5750 5749 5748 5747 5746 5745 5745
5831 5829 5820 5808 5804 5823 5828 5830 5831 5826 5826 5824 5817 5808 5808 5811 5811 5812 5813 5813 5807 5799 5792 5785 5782 5778 5775 5773 5771 5769 5767 5765 5763 5761 5759 5758 5757 5755 5754 5752 5751 5749 5748 5747 5746 5744 5744 5743 5743
5832 5818 5803 5800 5814 5832 5840 5838 5833 5821 5817 5818 5813 5797 5793 5806 5815 5815 5812 5809 5802 5796 5789 5782 5779 5776 5773 5771 5769 5767 5765 5763 5761 5759 5758 5756 5755 5753 5752 5750 5749 5747 5746 5744 5743 5742 5741 5741 5741
5819 5815 5797 5802 5823 5834 5839 5839 5831 5820 5816 5816 5809 5794 5788 5806 5808 5808 5808 5805 5801 5794 5786 5778 5776 5773 5771 5768 5766 5764 5763 5761 5759 5757 5756 5754 5753 5751 5750 5748 5747 5745 5744 5743 5741 5740 5740 5739 5739
5811 5806 5802 5818 5825 5826 5831 5837 5826 5817 5811 5809 5810 5791 5787 5798 5803 5804 5802 5800 5796 5792 5783 5777 5774 5771 5768 5766 5764 5762 5761 5759 5757 5755 5754 5753 5751 5750 5748 5747 5745 5744 5743 5741 5740 5739 5738 5738 5738
5828 5812 5807 5823 5820 5820 5834 5834 5828 5817 5810 5819 5814 5790 5778 5788 5799 5799 5795 5792 5790 5787 5782 5778 5775 5771 5767 5764 5762 5760 5759 5757 5755 5754 5752 5751 5750 5749 5747 5745 5744 5743 5742 5741 5740 5738 5738 5737 5737
5834 5805 5802 5817 5816 5819 5832 5825 5826 5827 5817 5813 5811 5800 5792 5794 5794 5790 5784 5783 5782 5782 5780 5779 5776 5772 5769 5765 5762 5759 5757 5756 5754 5752 5751 5750 5749 5748 5746 5745 5743 5742 5741 5740 5739 5738 5738 5737 5737
5827 5803 5812 5829 5829 5825 5826 5822 5820 5815 5804 5798 5796 5797 5794 5791 5787 5780 5776 5774 5773 5774 5775 5777 5775 5772 5770 5768 5761 5759 5758 5755 5754 5752 5751 5750 5749 5748 5746 5744 5743 5742 5741 5740 5739 5739 5738 5737 5737
5827 5817 5826 5833 5836 5831 5823 5821 5823 5808 5792 5790 5785 5785 5786 5782 5779 5777 5773 5773 5771 5771 5772 5771 5771 5770 5768 5766 5761 5760 5758 5755 5753 5751 5750 5749 5748 5747 5746 5743 5742 5741 5741 5740 5739 5738 5738 5738 5737
5826 5827 5831 5832 5837 5829 5822 5819 5813 5805 5796 5797 5794 5789 5782 5774 5772 5771 5769 5770 5769 5768 5767 5768 5768 5765 5765 5763 5761 5759 5757 5754 5752 5750 5749 5747 5746 5745 5743 5743 5741 5741 5741 5740 5739 5738 5738 5737 5737
5826 5829 5836 5838 5836 5832 5825 5815 5809 5803 5803 5800 5794 5787 5778 5773 5770 5768 5768 5767 5765 5764 5764 5764 5763 5761 5760 5760 5758 5757 5755 5753 5750 5748 5746 5745 5745 5743 5743 5741 5740 5740 5740 5739 5738 5738 5737 5736 5736
5830 5832 5832 5833 5832 5831 5820 5813 5807 5797 5798 5792 5786 5778 5773 5770 5766 5762 5760 5760 5758 5759 5759 5760 5758 5756 5754 5754 5753 5753 5752 5750 5748 5746 5743 5743 5742 5741 5740 5740 5739 5739 5739 5738 5737 5736 5736 5736 5735
5835 5823 5822 5826 5829 5829 5818 5800 5797 5796 5794 5784 5780 5775 5769 5765 5761 5756 5756 5756 5755 5754 5755 5754 5753 5751 5750 5750 5750 5750 5750 5748 5746 5743 5741 5740 5740 5739 5739 5739 5738 5737 5737 5736 5736 5736 5735 5735 5735
5825 5814 5804 5820 5828 5828 5808 5782 5794 5798 5790 5779 5775 5769 5761 5757 5755 5755 5755 5753 5752 5751 5750 5750 5751 5748 5747 5747 5748 5748 5747 5745 5743 5742 5739 5738 5737 5737 5737 5737 5736 5736 5737 5736 5735 5735 5734 5733 5733
5812 5802 5804 5816 5828 5825 5810 5790 5795 5800 5790 5778 5771 5765 5757 5750 5749 5749 5751 5749 5748 5747 5746 5744 5746 5744 5743 5743 5744 5744 5743 5742 5741 5740 5738 5736 5736 5736 5736 5736 5735 5735 5736 5736 5735 5732 5731 5730 5730
5800 5808 5811 5811 5824 5820 5806 5798 5800 5800 5791 5780 5772 5763 5754 5748 5745 5745 5745 5745 5743 5742 5742 5741 5740 5740 5739 5739 5739 5740 5739 5739 5739 5738 5736 5735 5734 5734 5734 5734 5734 5735 5735 5733 5732 5730 5730 5729 5728
5817 5811 5807 5813 5828 5816 5805 5801 5799 5799 5790 5780 5771 5763 5754 5748 5747 5745 5744 5743 5740 5738 5736 5736 5736 5735 5736 5735 5734 5734 5733 5736 5737 5736 5735 5734 5733 5733 5733 5734 5733 5733 5732 5731 5731 5728 5728 5727 5728
5817 5808 5808 5816 5828 5818 5806 5801 5803 5797 5789 5783 5774 5764 5756 5750 5746 5743 5741 5739 5737 5735 5734 5734 5734 5734 5734 5734 5735 5735 5734 5736 5737 5736 5733 5733 5732 5732 5733 5732 5732 5731 5730 5729 5729 5728 5725 5727 5727
5814 5809 5808 5808 5820 5822 5806 5790 5790 5789 5792 5787 5780 5772 5763 5754 5746 5742 5740 5738 5736 5734 5734 5735 5733 5733 5733 5733 5734 5734 5733 5734 5733 5732 5732 5732 5732 5731 5730 5731 5731 5730 5731 5727 5727 5726 5724 5723 5725
5806 5823 5818 5812 5801 5793 5791 5763 5774 5783 5782 5783 5780 5774 5766 5759 5752 5745 5742 5739 5738 5736 5736 5735 5734 5733 5732 5733 5733 5731 5729 5729 5731 5732 5732 5732 5731 5730 5730 5729 5729 5729 5729 5727 5727 5725 5725 5722 5721
5816 5827 5819 5808 5789 5773 5769 5768 5771 5788 5779 5781 5781 5777 5771 5763 5756 5749 5746 5743 5742 5740 5738 5736 5734 5733 5733 5733 5734 5732 5731 5732 5734 5734 5732 5731 5731 5730 5730 5728 5728 5727 5727 5726 5725 5724 5723 5722 5720
5829 5820 5814 5801 5772 5730 5751 5763 5768 5785 5786 5787 5786 5781 5774 5767 5761 5755 5751 5747 5744 5743 5741 5739 5735 5733 5733 5733 5734 5732 5732 5732 5732 5732 5730 5730 5731 5730 5729 5728 5727 5727 5726 5725 5723 5722 5721 5719 5718
5821 5795 5776 5767 5746 5735 5769 5771 5776 5795 5803 5798 5790 5783 5777 5770 5764 5758 5752 5748 5745 5744 5742 5740 5736 5733 5734 5734 5734 5733 5733 5733 5732 5732 5732 5731 5732 5731 5730 5730 5727 5726 5725 5723 5722 5720 5719 5718 5716
5811 5800 5771 5751 5753 5766 5774 5763 5780 5802 5806 5806 5799 5790 5781 5774 5769 5763 5758 5753 5749 5747 5745 5742 5738 5735 5735 5734 5734 5734 5733 5733 5733 5733 5734 5733 5734 5735 5733 5730 5727 5725 5724 5723 5720 5719 5718 5716 5714
5806 5803 5807 5781 5775 5765 5762 5766 5776 5794 5794 5797 5795 5789 5782 5778 5773 5768 5763 5759 5755 5752 5749 5746 5742 5738 5737 5736 5735 5734 5733 5733 5734 5735 5735 5735 5735 5735 5733 5730 5727 5725 5723 5721 5719 5716 5716 5715 5712
5820 5811 5799 5780 5757 5750 5757 5753 5749 5769 5781 5788 5789 5787 5783 5782 5777 5773 5768 5764 5760 5757 5753 5750 5746 5742 5740 5739 5737 5736 5735 5735 5735 5735 5735 5735 5735 5735 5732 5729 5726 5724 5722 5719 5716 5715 5714 5712 5710
5801 5797 5795 5788 5781 5757 5746 5751 5777 5777 5786 5789 5790 5790 5787 5784 5781 5777 5772 5769 5765 5761 5756 5752 5749 5745 5742 5741 5739 5739 5737 5737 5736 5734 5734 5734 5733 5732 5730 5728 5725 5722 5720 5717 5714 5712 5712 5709 5707
5803 5796 5791 5771 5768 5773 5763 5757 5792 5790 5791 5794 5794 5793 5791 5788 5785 5781 5776 5771 5766 5763 5760 5755 5752 5748 5746 5744 5742 5740 5739 5738 5736 5735 5734 5733 5731 5730 5728 5726 5723 5721 5718 5716 5713 5709 5709 5706 5704